DAL106 KMCO-KRDU

Flight info

Callsign DAL106
Flight time N/A
Altitude 37000
Route FATHE3 VIYAP Q69 GURGE PETTO DMSTR2
Aircraft B738/M-SDE2E3FGHIRWXY/LB1

Departure

Time 2026-05-07 00:41
Airport Orlando International Airport (KMCO)

Arrival

Time N/A
Airport Raleigh-Durham International Airport (KRDU)
Time Latitude Longitude Altitude Speed Heading
2026-05-07 00:24 28.42882 -81.30087 93 ft 0 kts 146°
2026-05-07 00:34 28.42888 -81.30092 93 ft 2 kts 147°
2026-05-07 00:34 28.42909 -81.30105 93 ft 4 kts 159°
2026-05-07 00:34 28.42935 -81.30112 94 ft 4 kts 173°
2026-05-07 00:34 28.42958 -81.30117 93 ft 4 kts 131°
2026-05-07 00:35 28.42962 -81.30110 93 ft 0 kts 65°
2026-05-07 00:37 28.42963 -81.30109 97 ft 1 kts 65°
2026-05-07 00:37 28.42973 -81.30078 96 ft 10 kts 77°
2026-05-07 00:37 28.42950 -81.29951 94 ft 22 kts 119°
2026-05-07 00:37 28.42911 -81.29794 96 ft 21 kts 89°
2026-05-07 00:38 28.43003 -81.29706 94 ft 20 kts 355°
2026-05-07 00:38 28.43142 -81.29708 95 ft 20 kts 359°
2026-05-07 00:38 28.43276 -81.29709 97 ft 19 kts 359°
2026-05-07 00:38 28.43406 -81.29710 97 ft 18 kts 359°
2026-05-07 00:39 28.43530 -81.29703 94 ft 18 kts 28°
2026-05-07 00:39 28.43541 -81.29591 96 ft 13 kts 136°
2026-05-07 00:39 28.43481 -81.29586 97 ft 0 kts 178°
2026-05-07 00:40 28.43411 -81.29585 97 ft 38 kts 180°
2026-05-07 00:40 28.42882 -81.29580 97 ft 112 kts 179°
2026-05-07 00:40 28.41894 -81.29575 147 ft 166 kts 177°
2026-05-07 00:41 28.40733 -81.29575 816 ft 175 kts 177°
2026-05-07 00:41 28.39432 -81.29562 1319 ft 198 kts 177°
2026-05-07 00:41 28.37991 -81.29541 1743 ft 215 kts 178°
2026-05-07 00:41 28.36505 -81.29111 2056 ft 231 kts 144°
2026-05-07 00:42 28.35412 -81.27722 2510 ft 248 kts 126°
2026-05-07 00:42 28.34495 -81.25982 3002 ft 266 kts 111°
2026-05-07 00:42 28.34309 -81.23871 3689 ft 274 kts 80°
2026-05-07 00:42 28.35031 -81.21871 4485 ft 278 kts 53°
2026-05-07 00:43 28.36485 -81.20443 5251 ft 280 kts 25°
2026-05-07 00:43 28.38358 -81.19937 6104 ft 277 kts 359°
2026-05-07 00:43 28.40266 -81.20157 6924 ft 277 kts 351°
2026-05-07 00:43 28.42186 -81.20531 7587 ft 283 kts 349°
2026-05-07 00:44 28.44132 -81.20939 8304 ft 286 kts 349°
2026-05-07 00:44 28.46073 -81.21345 9026 ft 289 kts 349°
2026-05-07 00:44 28.48070 -81.21756 9749 ft 293 kts 350°
2026-05-07 00:44 28.50060 -81.22159 10337 ft 300 kts 349°
2026-05-07 00:45 28.52196 -81.22586 10509 ft 322 kts 350°
2026-05-07 00:45 28.54481 -81.23039 10659 ft 343 kts 350°
2026-05-07 00:45 28.56862 -81.23508 10826 ft 360 kts 349°
2026-05-07 00:45 28.59391 -81.24004 11246 ft 367 kts 349°
2026-05-07 00:46 28.61880 -81.24491 11892 ft 367 kts 349°
2026-05-07 00:46 28.64413 -81.24986 12463 ft 371 kts 349°
2026-05-07 00:46 28.66964 -81.25485 13038 ft 374 kts 349°
2026-05-07 00:46 28.69535 -81.25987 13674 ft 375 kts 349°
2026-05-07 00:47 28.72118 -81.26493 14277 ft 377 kts 349°
2026-05-07 00:47 28.74710 -81.27001 14780 ft 381 kts 348°
2026-05-07 00:47 28.77353 -81.27519 15293 ft 385 kts 348°
2026-05-07 00:47 28.80011 -81.28040 15812 ft 389 kts 348°
2026-05-07 00:48 28.82685 -81.28564 16325 ft 392 kts 348°
2026-05-07 00:48 28.85411 -81.29022 16836 ft 397 kts 352°
2026-05-07 00:48 28.88141 -81.29281 17330 ft 401 kts 353°
2026-05-07 00:48 28.90939 -81.29475 17828 ft 405 kts 354°
2026-05-07 00:49 28.93760 -81.29675 18317 ft 408 kts 353°
2026-05-07 00:49 28.96603 -81.29903 18750 ft 410 kts 352°
2026-05-07 00:49 28.99454 -81.30147 19236 ft 411 kts 352°
2026-05-07 00:49 29.02299 -81.30446 19719 ft 411 kts 351°
2026-05-07 00:50 29.05159 -81.30779 20176 ft 413 kts 350°
2026-05-07 00:50 29.08027 -81.31111 20613 ft 415 kts 350°
2026-05-07 00:50 29.10903 -81.31435 21067 ft 416 kts 350°
2026-05-07 00:50 29.13806 -81.31683 21507 ft 419 kts 352°
2026-05-07 00:51 29.16730 -81.31857 21923 ft 422 kts 352°
2026-05-07 00:51 29.19668 -81.32008 22334 ft 424 kts 352°
2026-05-07 00:51 29.22620 -81.32159 22734 ft 426 kts 352°
2026-05-07 00:51 29.25582 -81.32318 23136 ft 427 kts 352°
2026-05-07 00:52 29.28559 -81.32486 23518 ft 429 kts 351°
2026-05-07 00:52 29.31545 -81.32661 23858 ft 431 kts 351°
2026-05-07 00:52 29.34540 -81.32840 24157 ft 433 kts 351°
2026-05-07 00:52 29.37563 -81.33022 24454 ft 435 kts 351°
2026-05-07 00:53 29.40585 -81.33205 24763 ft 436 kts 351°
2026-05-07 00:53 29.43623 -81.33388 25065 ft 438 kts 351°
2026-05-07 00:53 29.46676 -81.33573 25355 ft 440 kts 351°
2026-05-07 00:53 29.49737 -81.33758 25631 ft 442 kts 350°
2026-05-07 00:54 29.52777 -81.33941 25919 ft 444 kts 350°
2026-05-07 00:54 29.55875 -81.34128 26211 ft 445 kts 350°
2026-05-07 00:54 29.58976 -81.34315 26490 ft 447 kts 350°
2026-05-07 00:54 29.62092 -81.34504 26761 ft 449 kts 350°
2026-05-07 00:55 29.65216 -81.34692 27028 ft 451 kts 350°
2026-05-07 00:55 29.68353 -81.34875 27285 ft 453 kts 350°
2026-05-07 00:55 29.69415 -81.34936 27369 ft 453 kts 350°